Regional Weather Roundup
Issued by NWS New Orleans/Baton Rouge, LA

Home | Current Version | Previous Version | Text Only | Print | Product List | Glossary On
Versions: 1 2 3 4 5 6 7 8 9 10 11 12 13 14 15 16 17 18 19 20 21 22 23 24 25 26 27 28 29 30 31 32 33 34 35 36 37 38 39 40 41 42 43 44 45 46 47 48 49 50
000
ASUS44 KLIX 232013
RWRLIX
NEW ORLEANS REGIONAL WEATHER ROUNDUP
NATIONAL WEATHER SERVICE NEW ORLEANS LA
300 PM CDT WED AUG 23 2017

NOTE: "FAIR" INDICATES FEW OR NO CLOUDS BELOW 12,000 FEET WITH NO
      SIGNIFICANT WEATHER AND/OR OBSTRUCTIONS TO VISIBILITY.
      SKY/WX - SKY CONDITION AND SIGNIFICANT WEATHER.
      TMP - AIR TEMPERATURE.     DP    - DEWPOINT TEMPERATURE.
      RH  - RELATIVE HUMIDITY.   PRES  - PRESSURE.
      HI  - HEAT INDEX.          WCI   - WIND CHILL INDEX.

*  THESE STATIONS ARE NOT NWS OR FAA STATIONS AND ARE NOT UNDER
   NWS QUALITY CONTROL.

LAZ038-040-048-061>063-065>067-069-232100-
SOUTHEAST LOUISIANA

CITY           SKY/WX    TMP DP  RH WIND       PRES   REMARKS
N.O. INTL ARPT PTSUNNY   90  72  55 E8        29.91F HX  97
N.O. LAKEFRONT MOSUNNY   89  76  65 NW6       29.92F HX 100
N.O. DOWNTOWN* MOCLDY    90  74  59 VRB5      29.92F HX  99
RESERVE*       MOCLDY    91  72  52 E6        29.91F HX  99
SLIDELL        CLOUDY    90  73  57 CALM      29.90F HX  98
BATON ROUGE    MOSUNNY   91  71  51 VRB3      29.91F HX  97
BOOTHVILLE     CLOUDY    87  76  69 E6        29.93F HX  97
BELLE CHASSE   NOT AVBL
BOGALUSA*        N/A     92  71  49 CALM      29.93F HX  98
GALLIANO*      CLOUDY    89  74  60 CALM      29.91F HX  97
NEW ROADS*     MOCLDY    88  74  61 NE3       29.92F HX  96
GONZALES*        N/A     89  71  54 E3        29.91F HX  95
HAMMOND*       CLOUDY    90  70  51 CALM      29.92F HX  95
HOUMA*         MOSUNNY   90  75  62 N5        29.91F HX 100
PORT FOURCHON* MOCLDY    86  75  70 SE5G13    29.92F HX  95

$$

MSZ070-080>082-232100-
SOUTHERN MISSISSIPPI

CITY           SKY/WX    TMP DP  RH WIND       PRES   REMARKS
MCCOMB         MOSUNNY   90  71  53 NE3       29.93F HX  96
GULFPORT       CLOUDY    89  76  65 S8        29.90F HX 100
BILOXI         CLOUDY    88  76  69 S9        29.90F HX  99
PASCAGOULA     PTSUNNY   91  74  57 CALM      29.90F HX 100
STENNIS ARPT*  MOSUNNY   88  77  70 CALM      29.90F HX 100

$$

COASTAL OBSERVATIONS
LAKE AND NEARSHORE STATIONS

STATION/POSITION TIME  TEMP    WIND        PRES    WAVE
                       AIR SEA DIR/SP/G            HT/PER
                 (UTC) (F)     (DEG/KT/KT) (MB)    (FT/S)
PASCAGOULA       1948   88     180/  7/ 10 1012.5
WAVELAND YACHT   1948   85 87  160/  7/  9 1013.0
GRAND ISLE       1948   87 89  110/  4/  6 1013.4
SOUTHWEST PASS   1948   90      60/  8/  9   N/A
NEW CANAL        1948   86 88   10/  5/  6 1012.9
SHELL BEACH      1948   86 90   80/  6/  8 1013.2

OFFSHORE STATIONS

STATION/POSITION TIME  TEMP    WIND        PRES    WAVE
                       AIR SEA DIR/SP/G            HT/PER
                 (UTC) (F)     (DEG/KT/KT) (MB)    (FT/S)
64 S DAUPHIN ISL 1950   85 87   40/  4/  6 1013.1    2/ 6

$$




USA.gov is the U.S. government's official web portal to all federal, state and local government web resources and services.